DELTA 1 DEB, 7082

Orbit data source: Space-Track

DELTA 1 DEB, 7082 is space debris in SSO originally from a launch on Tue, 06 Nov 1973 UTC launched from the Air Force Western Test Range (AFWTR). Debris objects in space refer to the collection of defunct objects orbiting the Earth. Examples of debris include non-operational satellites, rocket bodies, and fragments generated from explosions, collisions, or faulty payload assembly.

Loading next visibility...
Identifier
7082, 1973-086CA
Orbit
SSO
Country
Flag of USUS
Related business
Manufacturer
Unknown
Mission
Spacecraft
Bus & Motor
Unknown
Mass
Unknown
Launch date (UTC)
1973-11-06 (53 years ago)
Launch vehicle
Unknown
Launch site
Air Force Western Test Range (AFWTR)
Object type
Payload
Rocket body
Debris
Shape & HBR
Unknown shape, 0.2 m
Radar Cross Section
Medium (>0.1 m² and <1 m²)

Expand to show TLE details & history
Last TLE update: 9 hours ago

TLE from 9 hours ago
0 DELTA 1 DEB
1 07082U 73086CA  26263.52620582  .00000313  00000-0  20135-2 0  9990
2 07082 101.7811 140.3438 0029648  91.6331  26.6854 12.61986883420798
Epoch: 2026-09-20T12:37Z
TLE epoch observation values (Epoch: 2026-09-20T12:37:44.182Z)
Latitude
59.46955°
Longitude
152.09392°
Altitude
1,404.024 km
Speed
7.173 km/s
True Right ascension
22h 43m 47s
True Declination
59° 19' 53"
Sunlit
Object was in daylight at epoch
Visualization orbit readout
Latitude
Unknown
Longitude
Unknown
Altitude
Unknown
Speed
Unknown
Apparent Right ascension
Unknown
Apparent Declination
Unknown
Sunlit
N/A
Visualization observer readout
Local Sidereal Time
15:01:17
Azimuth
Unknown
Elevation
Unknown
Doppler factor
Unknown
Orbital elements
Apogee altitude
1,435.384 km
Perigee altitude
1,389.19 km
Semi-major axis
7,790.424 km
Eccentricity
0.00296
Inclination
101.7811°
RAAN
140.3438°
Arg. of periapsis
91.6331°
True anomaly
26.83848°
Mean anomaly
26.6854°
Eccentric anomaly
26.76189°
Mean motion
3.15647 °/min
Orbital period
114.05 mins
BSTAR
0.0020135
Loading maneuver chart data...
Computing Atmospheric mass density...
Loading historical data...
Loading historical data...
Loading historical data...
Loading historical data...
Loading historical data...
Loading historical data...
Loading historical data...

Documentation

Showing up to 5 results
|